KUIPER-00260

导读

KUIPER-00260是亚马逊柯伊伯(Project Kuiper)低轨卫星互联网星座中的一颗卫星,于2026年2月12日由法国发射,是该项目大规模部署阶段的任务星之一。柯伊伯计划旨在通过数千颗低轨卫星为全球提供高速低延迟互联网接入,该卫星将助力项目完成全球覆盖目标,推动太空互联网基础设施建设。

基本信息
目录编号:
67787
目录名称:
KUIPER-00260
国际标识:
2026-030Z
轨道中心:
EARTH
卫星名称:
KUIPER-00260
卫星全名:
KUIPER-00260
卫星状态:
在轨 (已飞行205 天)
发射日期:
2026-02-12 UTC
国别 :
美国 (US)
星等 :
--
轨道信息
数据来源 国际轨道数据 AOE轨道数据
星历时间 2026-09-05T10:20:24+0800
10小时前
查看轨道信息
2026-09-03T23:00:00+0800
1天前
查看轨道信息
半长轴 7007.65km 7007.684km
偏心率 0.0001013 0.0001142
轨道倾角 51.901° 51.899°
近地点辐角 101.650° 78.908°
升交点赤经 122.374° 128.888°
平近点角 258.457° 351.289°
近地点 628.803km 628.746km
远地点 630.223km 630.348km
周期 97.301分钟 97.302分钟
每日圈数 14.799403 14.799294
详细信息
使用方式:
暂无
2D轨道图
3D轨道图
轨道高度分析图
轨道倾角分析图
轨道综合分析图
查看轨道综合分析图
交会数据列表
事件ID 空间交会对象 最接近时刻(TCA) 交会距离 交会风险概率(CRP) 交会风险指数(CRI) 操作
CDM_260906-141704-340206-778724
2026-09-06T
14:17:37+0000
0.581 km
远距离
1.362267E-4 高风险 0.78
CDM_260907-101603-367606-778721
2026-09-07T
10:16:24+0000
1.545 km
极远距离
6.060929E-6 低风险 0.51
CDM_260906-224403-557406-778723
2026-09-06T
22:44:52+0000
2.577 km
极远距离
1.641597E-6 低风险 0.39
CDM_260906-114005-291206-778723
2026-09-06T
11:40:37+0000
2.904 km
极远距离
8.594921E-7 极低风险 0.34